{"data":{"norad_id":66535,"epoch":"2026-05-25T05:12:19.259712Z","epoch_age_seconds":66468,"freshness":"FRESH","line1":"1 66535U 25265V   26145.21688958  .00015170  00000+0  55983-3 0  9996","line2":"2 66535  43.0027 206.0620 0001501 278.5066  81.5615 15.27570588 28813","mean_motion":15.27570588,"eccentricity":0.0001501,"inclination_deg":43.0027,"raan_deg":206.062,"arg_perigee_deg":278.5066,"mean_anomaly_deg":81.5615,"bstar":0.00055983,"rev_number":2881,"period_min":94.267329530437,"perigee_km":482.04741083501,"apogee_km":484.1071473616,"semimajor_km":6861.2142790983,"source":"CELESTRAK","updated_at":"2026-05-25T13:38:21.253344Z"}}